Theta_e
292 292 292 291 289 288 288 288 285 283 287 290 288 291 292 292 292 290 289 291 291 292 292 293 294 295 295 297 297 298 301 303 306 313 326 328 328 329
290 290 290 291 291 290 288 288 288 286 285 289 288 289 290 291 292 291 291 290 290 290 290 290 291 292 293 293 294 295 295 297 299 302 309 314 316 323
289 288 288 289 289 289 290 288 287 286 284 287 287 288 288 287 290 292 291 290 290 289 289 289 289 289 290 291 291 292 293 293 294 297 300 304 306 311
284 285 284 286 287 287 287 287 288 288 285 283 285 285 286 286 288 289 290 289 289 288 288 287 288 287 288 288 289 290 290 291 291 291 293 296 299 303
282 281 281 282 282 284 284 284 286 288 288 286 284 286 285 285 286 288 288 288 287 289 287 287 286 286 286 286 287 288 289 289 289 289 289 290 292 295
282 281 281 280 279 281 283 281 283 285 286 285 284 284 284 284 286 284 285 287 285 285 287 287 286 285 285 284 284 285 286 287 288 288 288 287 288 290
284 284 283 281 280 279 280 280 280 282 282 283 281 281 279 279 280 283 284 286 284 283 283 286 287 285 283 283 282 283 283 285 285 287 288 287 287 288
284 283 282 281 280 279 279 278 278 277 278 279 279 277 277 277 280 282 283 283 280 284 281 283 286 285 283 283 282 281 282 282 283 284 285 287 286 286
284 284 281 281 281 282 280 280 278 277 277 278 276 275 275 276 278 280 282 283 282 280 280 283 285 284 286 283 281 281 281 281 281 282 283 283 286 285
284 283 282 280 279 279 281 280 279 278 277 277 277 276 277 277 277 279 281 283 285 280 278 278 282 281 285 285 282 282 281 281 281 281 281 282 283 285
282 280 281 279 277 278 280 279 278 278 278 278 278 278 278 277 277 277 276 277 278 278 275 275 280 280 283 283 283 281 281 280 280 281 281 281 282 285
283 281 277 277 276 276 278 277 275 275 278 278 280 279 279 279 278 277 275 274 274 276 275 273 277 278 277 284 283 281 281 280 280 280 281 281 281 283
282 281 279 275 275 275 275 274 273 275 278 279 279 279 278 278 278 278 277 275 273 273 275 274 275 275 276 278 281 281 280 280 279 280 280 281 281 280
281 280 277 274 274 274 274 273 275 277 278 277 277 276 275 275 277 278 278 278 277 275 276 274 273 273 274 275 275 278 279 279 279 278 279 280 281 280
280 275 274 273 274 276 273 274 276 276 275 275 274 274 275 276 277 277 278 279 279 278 277 275 275 274 275 274 274 276 275 277 278 277 277 278 279 280
276 277 276 275 275 276 277 276 276 275 274 274 274 275 276 275 275 275 275 275 275 276 278 277 277 276 273 273 273 273 274 273 276 276 276 278 279 280
278 279 279 278 277 277 277 276 276 274 274 273 273 273 273 272 273 273 274 274 273 273 274 276 278 277 276 273 272 273 272 272 274 275 275 275 278 279
277 278 278 277 276 276 275 275 275 273 272 272 272 272 271 270 270 272 273 272 271 271 272 273 274 274 275 272 272 272 272 271 272 273 274 273 274 277
276 278 277 276 275 275 274 273 272 272 271 271 271 270 270 269 269 270 270 270 269 269 270 272 272 271 268 267 272 273 270 270 270 270 271 272 271 273
277 277 277 276 275 274 273 272 272 271 271 270 270 269 269 268 268 268 268 267 267 267 269 271 271 269 267 266 267 271 271 270 269 268 269 271 272 274
278 277 277 275 274 274 273 272 271 270 269 268 269 268 268 267 267 267 267 266 266 268 267 268 270 270 271 271 268 270 272 273 271 270 269 268 268 269
279 277 276 275 274 273 272 272 270 270 270 269 268 268 267 266 266 266 266 265 266 266 266 268 270 270 269 268 267 268 269 271 272 273 272 271 268 264
278 277 276 275 273 272 271 271 270 269 268 268 267 267 266 265 266 266 265 265 265 265 265 265 266 268 267 267 266 267 267 267 268 268 270 272 272 272
Wind_Speed
8 9 7 5 5 5 5 5 5 6 7 6 6 11 8 8 11 9 11 21 27 28 29 31 32 32 32 32 32 33 30 28 29 25 20 24 23 24
8 10 9 8 7 5 6 6 6 6 5 7 6 7 10 9 10 9 10 12 24 26 28 30 31 32 33 32 33 33 34 31 31 30 24 15 10 6
11 11 12 11 8 8 6 6 6 6 6 6 7 8 9 11 10 8 8 9 9 23 26 28 29 31 32 32 32 32 32 32 33 30 28 21 20 16
12 12 12 10 12 12 9 10 8 6 5 9 7 8 9 12 10 9 6 8 8 17 20 24 28 30 30 32 33 32 32 31 31 32 31 28 28 23
10 10 11 11 11 9 10 10 9 7 8 6 7 8 9 10 10 11 7 8 8 15 17 19 22 26 28 29 31 31 31 29 29 29 26 28 29 29
8 9 9 11 11 11 9 10 9 8 8 7 7 7 8 10 8 9 9 6 8 10 11 14 16 21 24 27 28 28 29 29 29 27 26 26 24 28
4 6 7 8 13 13 9 11 11 9 8 8 8 8 9 10 11 9 8 7 5 9 9 8 7 8 11 18 21 27 27 27 27 27 26 25 26 27
7 8 9 12 7 10 11 15 15 12 11 9 9 10 10 11 11 10 8 7 8 9 10 6 8 7 7 9 22 24 25 26 26 25 26 23 26 26
8 8 8 9 12 9 7 8 14 16 13 11 10 11 11 13 13 12 10 9 4 8 10 4 8 7 6 8 22 22 24 25 25 25 25 24 19 21
9 9 9 11 12 13 8 7 9 10 11 9 10 10 11 13 14 13 13 11 4 11 13 6 9 9 5 7 19 20 22 22 23 24 25 24 23 13
8 11 11 11 16 20 9 8 8 9 8 7 7 9 10 15 17 11 11 10 9 6 11 8 8 10 5 6 8 19 17 21 20 21 23 24 26 4
5 8 14 11 13 15 11 10 9 9 9 9 7 7 9 10 13 11 10 10 10 5 12 9 9 10 6 6 7 9 9 18 18 19 19 20 22 10
3 4 7 9 11 12 12 9 8 9 9 7 7 7 8 9 8 8 7 8 7 6 9 8 9 9 7 8 6 7 8 9 9 11 16 16 14 12
3 4 6 7 7 9 9 11 11 9 6 6 7 7 7 7 8 8 7 6 2 3 4 7 7 8 8 8 9 8 8 7 9 10 10 11 15 9
5 6 4 2 3 2 4 9 9 7 7 6 7 7 7 7 9 8 8 8 8 5 1 3 6 8 8 8 9 8 9 7 10 10 10 9 8 7
6 3 1 3 4 4 3 5 5 6 5 6 7 7 7 7 7 7 8 7 8 6 4 0 5 7 6 6 9 8 9 8 9 9 9 8 7 7
2 3 2 2 4 4 4 3 4 5 6 6 6 7 7 7 7 8 7 8 7 8 7 7 7 8 3 2 6 7 8 9 9 9 10 8 7 7
4 2 2 2 4 4 5 5 4 4 6 7 6 6 7 7 8 8 7 7 8 8 8 8 8 8 4 3 6 6 7 8 9 10 10 8 8 8
6 2 2 3 4 4 4 5 5 4 5 5 6 6 7 7 8 8 8 8 8 8 9 8 7 8 8 8 2 3 6 7 8 8 9 9 9 9
7 3 2 3 4 4 4 5 5 5 5 6 6 5 6 7 8 7 8 8 8 9 9 8 7 8 8 9 10 9 3 5 6 8 9 8 9 17
6 4 2 3 4 4 4 4 4 5 3 5 5 5 6 7 7 7 8 9 9 9 9 9 9 7 8 9 8 8 5 8 4 9 9 8 9 9
4 3 2 2 3 4 4 3 5 4 4 4 5 5 5 6 7 7 7 8 9 8 9 9 10 9 9 9 9 10 9 8 12 16 14 11 7 8
4 3 2 1 2 3 4 4 4 4 5 4 5 5 5 6 7 7 7 8 8 9 9 9 10 10 10 9 11 9 12 11 9 10 9 15 13 15
Wind_Direction
39 30 33 53 36 22 0 354 345 332 351 21 7 12 9 3 24 22 18 19 24 28 30 31 31 31 30 30 32 31 26 23 21 10 226 211 218 226
42 33 30 14 31 46 18 7 9 344 319 19 9 8 9 354 2 15 23 25 28 28 31 31 30 31 32 30 31 33 31 26 29 27 18 26 37 224
34 35 25 22 29 10 21 28 14 8 337 3 11 6 10 0 350 6 15 20 27 27 29 32 32 31 30 31 31 32 33 31 33 33 29 29 29 42
36 36 27 24 19 20 12 8 1 34 4 352 5 3 6 1 349 1 9 16 24 29 29 29 31 32 31 30 29 30 30 33 34 32 29 29 36 31
47 44 37 28 28 20 19 9 358 2 10 4 6 13 3 4 356 360 22 3 18 16 25 27 30 30 30 29 30 28 29 27 35 41 33 34 36 38
62 53 49 42 31 15 30 17 356 358 6 14 12 10 13 1 357 354 1 30 21 16 3 25 31 32 30 29 28 28 27 26 29 31 36 42 37 45
131 104 53 66 58 49 30 25 9 12 14 11 17 12 10 360 359 343 353 349 69 23 346 20 13 34 28 29 27 25 27 27 28 23 27 36 40 43
68 58 60 31 92 74 67 60 45 19 18 14 21 10 10 359 342 335 349 344 1 31 340 29 3 23 47 32 28 25 26 24 25 24 22 26 38 38
57 52 52 50 12 12 73 72 68 42 22 16 24 16 6 357 342 338 342 333 23 29 348 27 16 11 8 45 29 26 21 22 25 24 22 20 29 46
48 46 48 41 25 357 353 30 42 39 30 21 25 15 10 3 349 339 342 341 40 60 8 334 17 352 342 19 40 18 25 19 20 22 20 15 12 50
83 45 28 41 18 359 4 13 27 33 23 21 21 19 13 20 12 359 4 3 354 58 25 317 9 339 337 16 23 21 24 14 20 19 21 16 5 51
69 93 57 31 24 16 10 11 14 356 354 348 1 11 9 17 25 27 2 7 355 354 26 336 353 352 331 26 24 22 358 15 9 17 22 19 18 5
62 70 62 32 31 23 22 20 357 316 329 341 349 7 3 7 9 8 27 6 5 2 13 345 338 349 331 325 6 16 1 9 1 9 9 13 25 28
76 74 77 33 26 31 20 2 341 338 348 347 354 5 359 358 346 351 348 343 304 298 2 1 340 352 323 332 352 352 2 1 4 8 352 5 10 69
71 78 75 22 327 9 20 353 350 3 350 352 354 355 349 341 331 349 338 338 324 201 286 11 356 342 328 343 336 353 351 352 6 6 351 352 5 15
155 161 231 274 258 267 314 10 6 355 343 350 344 342 338 345 340 351 335 339 327 339 1 189 355 334 343 350 322 360 351 349 357 359 342 342 355 20
189 238 234 341 338 343 342 0 347 355 357 341 340 342 346 344 345 333 335 334 333 335 336 337 341 315 279 276 340 1 345 352 350 346 338 339 343 6
229 262 311 339 329 329 342 340 340 353 7 325 340 345 346 339 345 322 341 335 337 335 333 332 333 326 336 138 344 3 351 348 341 338 340 337 336 344
245 227 276 315 316 334 338 336 336 11 300 343 334 349 343 334 325 336 341 341 340 335 322 322 327 333 338 323 53 23 343 340 338 342 337 332 332 323
259 247 271 304 312 330 335 340 336 334 345 346 325 351 336 327 329 338 338 345 336 323 312 329 336 6 338 312 311 303 138 321 347 335 328 325 312 311
206 218 222 284 310 326 336 319 325 308 343 306 315 331 339 329 326 331 328 333 318 319 328 326 334 318 274 269 281 300 327 344 292 328 312 315 323 325
209 217 226 280 323 318 312 296 277 297 310 316 337 317 331 329 317 327 327 326 322 323 321 317 323 320 315 307 309 317 318 332 323 313 305 308 297 305
182 195 184 222 280 277 281 283 292 314 314 326 307 322 337 307 313 319 320 320 320 325 315 330 325 318 322 319 315 311 318 317 323 311 312 328 316 301